Wind_Speed
22 22 22 22 21 22 22 23 23 24 24 24 25 25 25 26 25 25 25 25 25 24 24 24 23 23 22 22 22 22 22 21 22 22 22 21 21 21
23 22 22 22 23 23 23 24 24 24 24 24 25 26 26 26 25 25 25 25 25 25 25 25 25 24 23 23 23 23 23 23 22 22 22 21 21 22
23 23 23 24 24 24 25 25 25 25 25 25 26 26 26 25 25 25 25 25 25 25 25 25 25 25 25 24 24 24 24 24 24 23 23 23 22 22
23 24 24 24 24 25 25 26 26 26 26 26 26 27 27 26 26 26 26 26 26 25 26 26 26 26 25 25 26 26 25 25 26 26 25 25 25 24
24 24 25 25 25 25 26 26 27 27 27 27 27 28 28 27 27 27 27 27 26 27 27 27 27 27 27 26 27 27 27 27 27 27 27 27 26 25
24 25 26 26 26 27 27 27 27 27 28 28 28 28 29 29 28 28 28 28 27 27 27 28 28 28 28 27 28 28 29 29 28 28 28 28 27 27
25 25 26 27 27 28 28 28 28 27 27 28 28 28 28 28 28 28 28 28 28 28 27 28 28 28 28 27 27 28 29 29 29 29 29 28 28 28
25 26 26 27 27 28 28 28 28 28 27 28 28 28 27 27 27 27 27 27 28 28 28 29 29 29 29 28 27 27 27 27 27 28 29 29 28 29
25 25 26 27 28 28 29 29 28 28 28 28 27 27 28 28 27 27 28 29 29 29 29 29 29 29 29 29 28 27 27 27 27 27 27 28 29 29
26 27 27 27 28 29 29 29 29 28 28 28 27 27 27 28 28 29 29 29 30 30 30 29 29 29 29 29 29 28 28 27 27 27 28 28 29 29
27 27 28 28 28 29 28 28 27 27 26 26 26 26 27 27 28 28 29 29 29 30 30 30 29 29 29 29 28 28 28 28 28 28 29 29 30 30
27 27 27 28 28 28 27 26 25 25 25 25 25 25 25 26 26 26 27 27 28 29 29 29 29 29 28 28 28 28 28 29 29 29 29 30 30 31
27 27 27 27 26 27 26 25 25 25 26 26 26 26 26 26 25 25 26 26 27 27 28 28 28 29 28 28 28 28 27 28 29 29 29 30 30 31
27 26 26 26 26 26 25 24 25 25 25 25 25 26 26 26 26 26 26 26 26 26 25 26 26 28 28 28 28 28 27 27 27 28 29 30 30 31
26 25 25 25 25 25 23 23 23 24 24 24 24 25 25 25 25 25 25 25 25 25 25 25 26 26 27 28 28 28 28 28 28 28 29 30 30 31
25 24 23 23 24 23 22 22 23 24 24 24 24 24 25 25 25 25 25 25 25 25 25 26 26 26 27 27 28 28 28 28 29 29 29 30 30 31
24 23 23 23 22 22 22 22 23 24 24 24 25 25 24 24 25 25 25 25 25 25 26 26 27 26 26 27 28 29 29 29 29 29 29 29 30 30
25 24 23 22 22 22 22 22 22 23 23 24 24 24 24 24 24 25 25 25 25 25 25 25 25 26 26 26 27 27 28 28 28 28 29 29 29 29
23 23 23 22 22 21 21 21 21 21 21 21 21 21 22 23 23 23 24 25 25 25 25 25 26 26 26 26 27 28 27 28 29 29 29 29 29 28
22 22 22 21 21 21 21 21 21 21 20 20 20 20 21 21 22 23 23 24 25 25 25 25 27 27 27 27 28 29 29 29 29 30 30 30 29 29
22 22 21 21 21 21 21 22 22 22 21 20 20 20 21 21 22 22 23 24 24 25 25 25 27 28 29 29 29 29 30 30 30 30 30 31 31 31
22 22 22 21 21 22 22 23 23 22 22 22 22 22 22 22 22 23 24 25 26 26 26 27 28 29 29 30 29 29 30 30 31 31 31 31 31 31
22 23 23 22 22 22 22 22 22 22 22 22 22 23 23 24 24 24 25 26 26 26 27 28 29 29 30 30 30 30 30 30 30 30 31 31 31 31
Wind_Direction
277 277 277 277 277 277 276 276 275 275 274 274 273 272 270 269 269 270 270 269 268 267 266 266 266 265 265 265 262 261 260 260 259 258 258 259 259 259
275 276 277 277 278 278 277 277 276 276 276 275 274 272 271 270 270 270 269 267 267 266 265 265 264 264 264 264 262 261 261 260 260 261 260 260 260 260
275 276 277 278 280 279 279 279 277 276 276 275 274 273 272 271 271 271 269 266 265 264 263 263 263 263 263 263 262 262 261 261 260 261 261 261 261 260
275 276 277 280 281 281 280 279 278 277 276 274 273 272 271 271 272 270 270 268 266 264 263 262 263 263 264 263 262 262 261 260 259 259 259 260 260 260
275 275 277 279 281 281 281 280 279 278 276 274 273 272 271 271 272 270 270 269 267 265 264 263 263 263 263 263 263 262 261 260 260 259 258 258 259 258
277 278 280 281 281 280 280 280 280 279 277 275 273 272 270 270 270 269 269 268 266 264 264 263 262 262 263 262 263 263 261 260 259 257 257 256 257 258
280 280 280 281 282 281 280 280 280 280 278 276 273 272 270 269 269 268 267 267 265 265 264 263 262 262 262 263 264 264 261 259 258 256 255 255 256 257
281 282 282 282 283 282 281 280 280 279 278 276 274 271 269 268 267 267 267 266 266 266 266 266 264 263 263 263 264 263 261 258 258 256 254 253 254 255
282 283 284 284 286 284 281 281 280 278 277 276 274 272 269 269 268 267 266 267 267 267 266 266 265 264 264 263 263 262 261 260 261 259 257 254 253 254
283 284 284 284 286 287 283 280 278 277 276 275 274 272 270 269 269 268 267 266 266 267 266 265 264 264 263 262 261 261 263 262 261 259 257 256 255 256
283 284 285 285 286 287 284 279 277 276 275 275 274 273 272 271 271 271 269 267 266 266 266 265 263 262 262 262 261 262 261 262 262 261 259 258 256 255
285 284 285 286 286 287 285 280 277 275 274 274 274 274 273 272 271 272 271 269 267 266 266 264 262 261 258 259 261 263 263 262 262 261 260 259 259 258
287 286 286 286 286 286 284 280 278 276 276 275 274 273 272 272 272 272 272 272 269 268 267 264 262 259 257 258 261 262 263 263 262 261 259 259 258 258
288 287 286 286 286 285 282 280 278 276 275 274 274 273 272 272 272 272 272 272 270 269 267 266 264 261 258 259 260 261 263 263 264 262 261 260 260 260
288 288 286 287 288 287 282 280 280 277 277 276 275 273 272 271 271 271 271 270 268 267 268 267 265 262 260 259 260 261 263 262 263 263 263 262 262 261
288 288 288 289 288 288 283 281 281 280 279 278 277 275 273 273 272 271 271 270 269 266 267 267 265 262 261 260 261 262 262 263 265 266 265 264 263 261
288 289 289 289 288 286 284 283 282 282 280 277 275 274 273 272 272 271 271 270 269 267 267 266 264 263 262 262 262 263 264 265 265 265 265 264 263 262
288 289 290 289 288 286 285 284 283 283 281 278 275 274 272 272 271 271 271 270 271 269 268 265 263 262 263 263 263 263 264 266 267 267 266 264 261 261
288 289 288 286 286 285 284 284 284 284 283 281 277 275 274 273 273 273 272 272 272 270 269 266 263 262 264 265 265 265 267 268 267 267 267 266 263 262
292 290 287 285 286 285 284 284 284 283 284 283 278 276 277 277 277 276 274 273 274 272 271 269 266 265 265 266 266 267 268 270 269 268 267 266 263 262
291 290 287 286 286 285 286 289 289 286 284 283 280 278 279 279 278 278 277 276 276 274 273 272 269 266 265 266 266 267 269 271 270 268 266 264 262 262
290 289 289 287 285 285 288 289 288 287 284 284 281 278 277 277 278 279 280 279 278 278 275 272 269 267 267 268 269 269 270 272 270 267 264 263 263 261
289 287 286 286 285 285 286 287 286 284 283 285 283 280 277 277 278 280 281 279 279 279 276 273 270 269 269 270 271 271 271 270 269 267 264 263 263 262
Height
5785 5784 5783 5782 5781 5780 5779 5778 5778 5777 5776 5775 5775 5774 5773 5773 5773 5773 5772 5772 5772 5773 5773 5773 5773 5773 5774 5774 5774 5774 5775 5775 5776 5777 5778 5778 5779 5780
5778 5778 5777 5776 5775 5773 5772 5771 5770 5770 5769 5769 5768 5767 5766 5766 5766 5766 5766 5766 5766 5766 5766 5766 5767 5767 5767 5768 5768 5768 5769 5770 5770 5771 5772 5773 5773 5774
5771 5770 5770 5769 5767 5766 5765 5764 5763 5762 5761 5761 5760 5759 5759 5758 5758 5758 5758 5758 5758 5758 5759 5759 5760 5760 5760 5761 5761 5762 5763 5763 5764 5765 5766 5767 5767 5768
5764 5763 5762 5761 5760 5759 5757 5756 5754 5753 5753 5753 5752 5751 5751 5751 5750 5750 5750 5750 5750 5750 5751 5751 5752 5753 5753 5754 5754 5755 5756 5756 5757 5758 5759 5760 5761 5762
5757 5755 5754 5753 5752 5750 5749 5748 5746 5745 5744 5744 5743 5743 5742 5742 5742 5742 5741 5742 5742 5742 5743 5743 5744 5745 5745 5746 5746 5747 5748 5749 5750 5751 5752 5753 5754 5755
5749 5748 5746 5745 5743 5742 5740 5739 5738 5736 5735 5735 5734 5734 5733 5733 5733 5733 5733 5733 5734 5734 5734 5735 5736 5736 5737 5738 5738 5739 5740 5741 5742 5743 5744 5746 5747 5748
5741 5739 5738 5736 5735 5733 5731 5730 5729 5727 5727 5726 5725 5725 5724 5724 5724 5724 5725 5725 5725 5726 5726 5727 5727 5728 5729 5729 5730 5730 5731 5732 5733 5734 5736 5738 5739 5740
5733 5731 5729 5728 5726 5724 5722 5721 5720 5718 5718 5717 5716 5716 5716 5716 5716 5716 5716 5717 5717 5718 5718 5718 5719 5720 5720 5721 5722 5722 5723 5724 5725 5726 5727 5729 5731 5732
5724 5723 5721 5719 5717 5715 5713 5711 5710 5709 5708 5708 5707 5707 5707 5707 5707 5708 5708 5708 5709 5709 5709 5710 5711 5711 5712 5712 5713 5714 5714 5715 5716 5717 5718 5720 5722 5724
5716 5714 5712 5710 5707 5705 5703 5702 5700 5700 5699 5699 5699 5699 5698 5698 5698 5699 5699 5699 5699 5700 5700 5701 5702 5702 5703 5704 5705 5705 5706 5707 5708 5709 5710 5712 5713 5715
5706 5704 5702 5700 5698 5695 5693 5692 5691 5691 5690 5690 5690 5689 5689 5689 5689 5689 5689 5689 5690 5690 5690 5692 5693 5693 5694 5695 5696 5696 5697 5698 5699 5700 5701 5703 5704 5706
5697 5695 5693 5691 5689 5686 5684 5683 5682 5682 5682 5681 5681 5681 5680 5680 5680 5679 5679 5680 5680 5681 5681 5682 5683 5684 5685 5686 5687 5687 5688 5689 5690 5691 5692 5693 5695 5696
5688 5686 5684 5681 5679 5677 5676 5674 5674 5673 5673 5673 5673 5672 5672 5672 5671 5671 5671 5671 5671 5671 5672 5672 5673 5674 5676 5677 5678 5679 5679 5680 5681 5682 5683 5684 5685 5687
5679 5677 5675 5673 5671 5669 5667 5666 5665 5665 5664 5664 5664 5664 5663 5663 5663 5663 5662 5662 5662 5663 5663 5663 5664 5665 5666 5667 5669 5670 5671 5671 5672 5673 5673 5674 5675 5677
5671 5668 5666 5664 5662 5661 5659 5659 5658 5657 5656 5656 5655 5655 5655 5655 5654 5654 5654 5654 5654 5654 5655 5655 5656 5656 5657 5658 5660 5661 5661 5662 5663 5663 5664 5665 5666 5667
5663 5661 5659 5657 5655 5653 5652 5651 5650 5650 5649 5648 5648 5647 5647 5646 5646 5646 5646 5646 5646 5646 5646 5647 5647 5648 5649 5650 5650 5651 5652 5653 5653 5653 5654 5655 5656 5657
5656 5654 5652 5650 5648 5646 5645 5644 5643 5642 5641 5640 5640 5639 5639 5638 5638 5637 5637 5637 5637 5638 5638 5638 5638 5639 5640 5641 5641 5642 5643 5643 5644 5644 5644 5645 5646 5647
5649 5647 5645 5643 5641 5640 5638 5637 5636 5635 5634 5632 5632 5631 5630 5630 5630 5629 5629 5629 5629 5629 5630 5630 5630 5631 5632 5632 5633 5633 5633 5634 5634 5634 5634 5635 5637 5638
5642 5640 5638 5636 5635 5633 5632 5631 5629 5628 5626 5625 5624 5623 5622 5622 5621 5621 5621 5621 5621 5621 5621 5621 5622 5622 5623 5624 5624 5624 5624 5624 5624 5625 5625 5626 5628 5629
5636 5633 5632 5630 5629 5627 5625 5624 5622 5621 5619 5618 5617 5616 5615 5614 5614 5613 5613 5613 5612 5613 5613 5613 5613 5613 5614 5615 5615 5615 5615 5615 5615 5615 5616 5616 5617 5619
5629 5627 5625 5623 5622 5620 5619 5617 5615 5614 5612 5611 5610 5609 5608 5607 5607 5606 5605 5605 5604 5604 5604 5604 5604 5604 5604 5605 5605 5606 5605 5605 5605 5605 5606 5606 5607 5609
5623 5620 5618 5616 5615 5614 5612 5610 5609 5607 5606 5604 5603 5602 5601 5600 5599 5598 5597 5597 5596 5595 5595 5594 5594 5594 5594 5595 5595 5595 5595 5595 5595 5595 5595 5596 5597 5599
5616 5614 5612 5610 5608 5607 5605 5603 5602 5600 5599 5597 5596 5595 5594 5593 5592 5590 5589 5588 5587 5586 5585 5585 5584 5584 5584 5584 5584 5584 5584 5584 5584 5584 5585 5586 5587 5588